TimeEST,TemperatureF,Dew PointF,Humidity,Sea Level PressureIn,VisibilityMPH,Wind Direction,Wind SpeedMPH,Gust SpeedMPH,PrecipitationIn,Events,Conditions,WindDirDegrees,DateUTC
12:15 AM,24.8,15.3,67,30.01,10.0,North,-9999.0,-,N/A,,Overcast,0,2013-02-17 05:15:00
12:35 AM,24.6,15.1,67,30.01,10.0,North,-9999.0,-,N/A,,Overcast,0,2013-02-17 05:35:00
12:55 AM,24.4,15.6,69,30.02,10.0,North,-9999.0,-,N/A,Snow,Light Snow,0,2013-02-17 05:55:00
1:15 AM,22.8,18.3,83,30.02,2.0,North,-9999.0,-,N/A,Snow,Light Snow,0,2013-02-17 06:15:00
1:35 AM,22.6,18.3,83,30.02,3.0,North,-9999.0,-,N/A,Snow,Light Snow,0,2013-02-17 06:35:00
1:55 AM,22.6,18.7,85,30.02,7.0,North,-9999.0,-,N/A,Snow,Light Snow,0,2013-02-17 06:55:00
2:15 AM,22.3,16.3,78,30.03,4.0,North,-9999.0,-,N/A,Snow,Light Snow,0,2013-02-17 07:15:00
2:35 AM,21.6,15.8,78,30.03,10.0,North,-9999.0,-,N/A,Snow,Light Snow,0,2013-02-17 07:35:00
2:55 AM,21.2,15.8,80,30.03,7.0,North,-9999.0,-,N/A,Snow,Light Snow,0,2013-02-17 07:55:00
3:15 AM,20.3,18.0,91,30.04,1.5,North,-9999.0,-,N/A,Snow,Light Snow,0,2013-02-17 08:15:00
3:35 AM,20.3,16.3,85,30.04,3.0,North,-9999.0,-,N/A,Snow,Light Snow,0,2013-02-17 08:35:00
3:55 AM,20.1,14.9,80,30.04,3.0,North,-9999.0,-,N/A,Snow,Light Snow,0,2013-02-17 08:55:00
4:15 AM,20.1,13.1,74,30.04,5.0,North,-9999.0,-,N/A,Snow,Light Snow,0,2013-02-17 09:15:00
4:35 AM,19.9,10.9,68,30.05,7.0,North,-9999.0,-,N/A,,Overcast,0,2013-02-17 09:35:00
4:55 AM,19.9,12.0,71,30.05,7.0,North,-9999.0,-,N/A,,Overcast,0,2013-02-17 09:55:00
5:15 AM,19.9,10.8,68,30.06,10.0,North,-9999.0,-,N/A,,Overcast,0,2013-02-17 10:15:00
5:35 AM,19.2,8.6,63,30.06,10.0,North,-9999.0,-,N/A,,Overcast,0,2013-02-17 10:35:00
5:55 AM,18.5,7.7,63,30.07,10.0,North,-9999.0,-,N/A,,Overcast,0,2013-02-17 10:55:00
6:15 AM,18.3,8.1,64,30.08,10.0,North,-9999.0,-,N/A,,Mostly Cloudy,0,2013-02-17 11:15:00
6:55 AM,18.0,8.8,67,30.09,10.0,North,-9999.0,-,N/A,,Overcast,0,2013-02-17 11:55:00
7:15 AM,17.6,9.3,70,30.10,10.0,North,-9999.0,-,N/A,,Overcast,0,2013-02-17 12:15:00
7:35 AM,17.6,9.3,70,30.10,10.0,North,-9999.0,-,N/A,,Overcast,0,2013-02-17 12:35:00
7:55 AM,18.1,10.2,71,30.11,10.0,North,-9999.0,-,N/A,,Overcast,0,2013-02-17 12:55:00
8:15 AM,18.5,10.9,72,30.12,7.0,North,-9999.0,-,N/A,,Overcast,0,2013-02-17 13:15:00
8:35 AM,19.2,12.2,74,30.13,10.0,North,-9999.0,-,N/A,,Overcast,0,2013-02-17 13:35:00
8:55 AM,19.6,13.8,78,30.13,3.0,North,-9999.0,-,N/A,Snow,Light Snow,0,2013-02-17 13:55:00
9:15 AM,19.9,14.9,81,30.14,1.5,North,-9999.0,-,N/A,Snow,Light Snow,0,2013-02-17 14:15:00
9:35 AM,20.3,15.6,82,30.14,1.5,North,-9999.0,-,N/A,Snow,Light Snow,0,2013-02-17 14:35:00
9:55 AM,20.3,15.1,80,30.14,2.0,North,-9999.0,-,N/A,Snow,Light Snow,0,2013-02-17 14:55:00
10:15 AM,20.3,14.0,77,30.15,4.0,North,-9999.0,-,N/A,Snow,Light Snow,0,2013-02-17 15:15:00
10:35 AM,22.5,12.6,66,30.16,10.0,North,-9999.0,-,N/A,,Mostly Cloudy,0,2013-02-17 15:35:00
10:55 AM,23.4,12.9,64,30.16,10.0,North,-9999.0,-,N/A,,Mostly Cloudy,0,2013-02-17 15:55:00
11:15 AM,23.5,13.5,65,30.17,10.0,North,-9999.0,-,N/A,,Overcast,0,2013-02-17 16:15:00
11:35 AM,24.6,14.5,66,30.17,10.0,North,-9999.0,-,N/A,,Mostly Cloudy,0,2013-02-17 16:35:00
11:55 AM,25.5,13.3,60,30.18,10.0,North,-9999.0,-,N/A,,Mostly Cloudy,0,2013-02-17 16:55:00
12:15 PM,25.7,13.6,60,30.17,10.0,North,-9999.0,-,N/A,,Mostly Cloudy,0,2013-02-17 17:15:00
12:35 PM,24.4,14.2,65,30.17,10.0,North,-9999.0,-,N/A,,Mostly Cloudy,0,2013-02-17 17:35:00
12:55 PM,25.7,14.4,62,30.17,10.0,North,-9999.0,-,N/A,,Mostly Cloudy,0,2013-02-17 17:55:00
1:15 PM,25.2,12.9,60,30.16,10.0,North,-9999.0,-,N/A,,Mostly Cloudy,0,2013-02-17 18:15:00
1:55 PM,28.2,12.0,51,30.16,10.0,North,-9999.0,-,N/A,,Scattered Clouds,0,2013-02-17 18:55:00
2:15 PM,29.3,12.6,50,30.16,10.0,North,-9999.0,-,N/A,,Scattered Clouds,0,2013-02-17 19:15:00
2:35 PM,29.3,12.2,49,30.16,10.0,North,-9999.0,-,N/A,,Scattered Clouds,0,2013-02-17 19:35:00
2:55 PM,29.5,11.5,47,30.15,10.0,North,-9999.0,-,N/A,,Scattered Clouds,0,2013-02-17 19:55:00
3:15 PM,29.8,11.3,46,30.15,10.0,North,-9999.0,-,N/A,,Mostly Cloudy,0,2013-02-17 20:15:00
3:35 PM,30.0,11.3,46,30.16,10.0,North,-9999.0,-,N/A,,Mostly Cloudy,0,2013-02-17 20:35:00
3:55 PM,30.6,11.7,45,30.16,10.0,North,-9999.0,-,N/A,,Scattered Clouds,0,2013-02-17 20:55:00
4:15 PM,30.7,10.8,43,30.16,10.0,North,-9999.0,-,N/A,,Scattered Clouds,0,2013-02-17 21:15:00
4:35 PM,28.9,10.0,45,30.16,10.0,North,-9999.0,-,N/A,,Scattered Clouds,0,2013-02-17 21:35:00
4:55 PM,28.4,10.2,47,30.17,10.0,North,-9999.0,-,N/A,,Scattered Clouds,0,2013-02-17 21:55:00
5:15 PM,28.4,9.9,46,30.17,10.0,North,-9999.0,-,N/A,,Clear,0,2013-02-17 22:15:00
5:35 PM,28.4,10.0,46,30.18,10.0,North,-9999.0,-,N/A,,Clear,0,2013-02-17 22:35:00
5:55 PM,28.0,9.3,45,30.18,10.0,North,-9999.0,-,N/A,,Clear,0,2013-02-17 22:55:00
6:15 PM,27.1,10.8,50,30.19,10.0,North,-9999.0,-,N/A,,Clear,0,2013-02-17 23:15:00
6:35 PM,26.4,11.5,53,30.20,10.0,North,-9999.0,-,N/A,,Clear,0,2013-02-17 23:35:00
6:55 PM,25.2,12.7,59,30.20,10.0,North,-9999.0,-,N/A,,Clear,0,2013-02-17 23:55:00
7:15 PM,24.4,12.9,62,30.21,10.0,North,-9999.0,-,N/A,,Clear,0,2013-02-18 00:15:00
7:35 PM,22.8,14.2,69,30.21,10.0,North,-9999.0,-,N/A,,Clear,0,2013-02-18 00:35:00
7:55 PM,21.4,15.6,78,30.22,10.0,North,-9999.0,-,N/A,,Clear,0,2013-02-18 00:55:00
8:15 PM,21.2,15.6,79,30.22,10.0,North,-9999.0,-,N/A,,Clear,0,2013-02-18 01:15:00
8:35 PM,20.3,15.6,82,30.23,10.0,North,-9999.0,-,N/A,,Clear,0,2013-02-18 01:35:00
8:55 PM,19.8,15.3,83,30.23,10.0,North,-9999.0,-,N/A,,Clear,0,2013-02-18 01:55:00
9:15 PM,19.6,15.4,84,30.24,10.0,North,-9999.0,-,N/A,,Clear,0,2013-02-18 02:15:00
9:35 PM,18.9,15.6,87,30.25,10.0,North,-9999.0,-,N/A,,Clear,0,2013-02-18 02:35:00
9:55 PM,18.1,14.7,86,30.25,10.0,North,-9999.0,-,N/A,,Clear,0,2013-02-18 02:55:00
10:15 PM,18.0,14.9,88,30.25,10.0,North,-9999.0,-,N/A,,Clear,0,2013-02-18 03:15:00
10:35 PM,17.4,14.5,88,30.25,10.0,North,-9999.0,-,N/A,,Clear,0,2013-02-18 03:35:00
10:55 PM,17.2,14.2,88,30.25,10.0,North,-9999.0,-,N/A,,Clear,0,2013-02-18 03:55:00
11:15 PM,16.7,14.0,89,30.25,10.0,North,-9999.0,-,N/A,,Clear,0,2013-02-18 04:15:00
11:35 PM,16.3,14.2,91,30.25,10.0,North,-9999.0,-,N/A,,Clear,0,2013-02-18 04:35:00
11:55 PM,16.2,13.6,90,30.25,10.0,North,-9999.0,-,N/A,,Clear,0,2013-02-18 04:55:00